Regional Weather Roundup
Issued by NWS

Home | Current Version | Previous Version | Text Only | Print | Product List | Glossary On
Versions: 1 2 3 4 5 6 7 8 9 10 11 12 13 14 15 16 17 18 19 20 21 22 23 24 25 26 27 28 29 30 31 32 33 34 35 36 37 38 39 40 41 42 43 44 45 46 47 48 49 50
000
ASUS45 KTFX 281804
RWRMT
MONTANA HOURLY WEATHER ROUNDUP
NATIONAL WEATHER SERVICE GREAT FALLS MT
1204 PM MDT SAT MAR 28 2015

NOTE: "FAIR" INDICATES FEW OR NO CLOUDS BELOW 12000 FEET WITH NO
SIGNIFICANT WEATHER AND/OR OBSTRUCTIONS TO VISIBILITY.

* THESE STATIONS ARE NOT UNDER NWS QUALITY CONTROL. THEY DO NOT
   REPORT WEATHER SUCH AS PRECIPITATION OR FOG.

MTZ001>007-043-281900-
WEST OF THE DIVIDE
CITY           SKY/WX    TMP DP  RH WIND       PRES   REMARKS
KALISPELL      CLOUDY    48  30  50 SW17G24   29.93R
MISSOULA       PTCLDY    48  30  50 W20G26    30.07R
BUTTE          CLOUDY    39  32  76 N9        30.01R WCI  33
MULLAN PASS    SNOW      28  28 100 N/A       30.02R VSB M1/4
* ESSEX        N/A       40  35  82 S2G11      N/A
* LINCOLN      N/A       40  34  79 SW7G22     N/A   WCI  35
* LOOKOUT PASS N/A       34  33  96 SE5G10     N/A   WCI  29
* POLSON       N/A       45  40  83 SW4G17     N/A
* SEELEY LAKE  N/A       40  36  86 SE3G17     N/A
* THOMP F APT  PTCLDY    51  30  45 S13G21     N/A
$$

MTZ008-052>055-281900-
SOUTHWEST MONTANA
CITY           SKY/WX    TMP DP  RH WIND       PRES   REMARKS
BOZEMAN        LGT RAIN  48  36  63 NW25G43   29.91R
DILLON         CLOUDY    48  25  41 W28G40    30.01R
* W YELLOWSTON PTCLDY    53  31  43 SW8G26     N/A
* BOULDER HILL N/A       38  27  65 NE5G19     N/A   WCI  34
* HOMESTAKE PS N/A       36  30  79 NW15G30    N/A   WCI  27
* MONIDA PASS  N/A       52  26  36 SW17G26    N/A
* RAYNOLDS PAS N/A       52  38  59 S27G37     N/A
* WHITEHALL    N/A       45  32  60 NW19G36    N/A
* WISE RIVER   N/A       36  33  89 SW9G18     N/A   WCI  29
$$

MTZ009>010-012-014-046-048-049-054-281900-
EAST SLOPES AND CENTRAL MONTANA
CITY           SKY/WX    TMP DP  RH WIND       PRES   REMARKS
CUT BANK       PTSUNNY   48  30  50 W41G49    29.70R
GREAT FALLS    HAZE      54  28  37 W43G54    29.76R VSB 3
HELENA         CLOUDY    48  32  54 W21G32    29.94R
MALMSTROM AFB  PTSUNNY   55  30  39 W31G45    29.78R
* DEARBORN     N/A       51  31  46 SW5G16     N/A
* EAST GLACIER N/A       41  31  68 W38G60     N/A
* MONARCH      N/A       51  30  45 W26        N/A
* PENDROY      N/A       54  29  38 W22G34     N/A
* ROGERS PASS  N/A       36  31  82 E17G34     N/A   WCI  26
* SAINT MARY   N/A       40  36  86 SW12G34    N/A   WCI  33
$$

MTZ011-013-016-021-035-040-045-047-050-051-281900-
NORTH CENTRAL MONTANA
CITY           SKY/WX    TMP DP  RH WIND       PRES   REMARKS
HAVRE          CLOUDY    61  39  44 W28G36    29.61R
LEWISTOWN      HAZE      61  36  39 NW28G43   29.67R
* N BAR RANCH  PTSUNNY   66  32  28 S12G18    29.67F
* CHESTER      N/A       58  31  36 W30G47     N/A
* DENTON       N/A       61  35  38 W30G42     N/A
* GEYSER       N/A       60  33  36 W41G50     N/A
* JUDITH GAP   N/A       63  33  33 SW9G17     N/A
* LOMA         N/A       62  34  35 W26G43     N/A
$$

MTZ017>020-022>027-061-062-281900-
NORTHEAST MONTANA
CITY           SKY/WX    TMP DP  RH WIND       PRES   REMARKS
GLASGOW        PTSUNNY   70  37  30 S12       29.52F
GLENDIVE       SUNNY     70  39  32 S12       29.64F
JORDAN         PTSUNNY   73  34  24 SW21G30   29.57F
SIDNEY         SUNNY     66  37  34 S16       29.59F
WOLF POINT     PTSUNNY   72  39  30 VRB5      29.54F
* BEAVER HILL  N/A       70  35  28 S17G23     N/A
* CIRCLE       N/A       71  40  33 S16        N/A
* LINDSAY DVD  N/A       74  36  25 SW19G24    N/A
* NAVAJO       N/A       64  41  43 SW15G20    N/A
* SACO         N/A       65  40  40 E6         N/A
$$

MTZ028>042-056>058-281900-
SOUTHCENTRAL AND SOUTHEAST MONTANA
CITY           SKY/WX    TMP DP  RH WIND       PRES   REMARKS
BAKER          SUNNY     73  34  24 SW17G22   29.69F
BILLINGS       SUNNY     75  27  17 SW22G32   29.67F
LIVINGSTON     PTSUNNY   66  27  23 SW41G53   29.70F
MILES CITY     PTCLDY    75  36  24 SW13      29.62F
* ALZADA       N/A       74  32  21 SW10       N/A
* HYSHAM       N/A       74  34  23 W6G17      N/A
* LAME DEER    N/A       73  35  25 SW11G19    N/A
* REED POINT   N/A       73  31  21 W17G31     N/A
* ROSCOE HILL  N/A       66  14  13 SE12G17    N/A
$$

REGIONAL REPORTS...DAKOTAS
CITY           SKY/WX    TMP DP  RH WIND       PRES   REMARKS
WILLISTON      SUNNY     68  37  32 S15       29.58F
DICKINSON      SUNNY     68  37  32 S22       29.67F
CROSBY         SUNNY     63  39  41 S20G28    29.55F
WATFORD CITY   SUNNY     68  36  31 S14       29.58F
BISMARCK       SUNNY     54  34  47 S16       29.81F
GRAND FORKS    PTCLDY    45  28  51 S28G36    29.95F
FARGO          SUNNY     46  27  48 S22G32    30.01F
BUFFALO SD     SUNNY     70  36  29 S17G23    29.68F
RAPID CITY     SUNNY     72  34  25 S17       29.80F
$$

REGIONAL REPORTS...WYOMING/IDAHO/WASHINGTON
CITY           SKY/WX    TMP DP  RH WIND       PRES   REMARKS
GILLETTE       PTCLDY    72  30  21 SW20G25   29.80F
SHERIDAN       SUNNY     77  25  14 NW9       29.73F
CODY           SUNNY     70  25  18 SW15G35   29.80F
YELLOWSTONE LA PTCLDY    48  27  44 W16G35    30.04S
SALMON         CLOUDY    45  34  65 S8        30.13R
MULLAN PASS    SNOW      28  28 100 N/A       30.02S VSB M1/4
SAND POINT     LGT RAIN  45  37  74 S3        30.06R
SPOKANE        PTSUNNY   52  37  57 SW33G40   30.08R
$$

REGIONAL REPORTS...ALBERTA
CITY           SKY/WX    TMP DP  RH WIND       PRES   REMARKS
MEDICINE HAT   CLOUDY    55  48  77 SW9       29.55R
$$

REGIONAL REPORTS...SASKATCHEWAN
CITY           SKY/WX    TMP DP  RH WIND       PRES   REMARKS
SWIFT CURRENT  CLOUDY    55  43  64 SW14G20   29.50F

$$



USA.gov is the U.S. government's official web portal to all federal, state and local government web resources and services.